Theta_e
352 357 365 367 368 369 368 367 366 363 362 361 361 360 359 360 361 363 363 364 364 363 360 359 359 359 358 356 354 356 356 357 356 355 354 354 354 353 352 351 350 348 350
354 356 365 367 367 368 368 367 365 364 362 363 362 360 359 361 362 363 364 364 363 362 359 360 361 357 356 356 353 354 354 355 354 354 354 353 353 353 352 351 353 350 350
352 356 358 366 367 367 367 366 364 363 362 364 363 360 361 361 362 363 364 364 364 361 359 360 360 359 356 356 355 353 354 353 355 356 356 353 348 354 353 351 351 352 350
354 354 356 366 366 366 367 365 363 363 363 364 362 361 361 362 362 362 363 363 362 361 360 358 358 357 356 355 354 353 353 353 357 358 355 354 355 356 356 354 351 352 351
354 357 359 365 366 365 365 365 363 363 363 363 362 361 361 362 362 362 362 362 361 360 359 358 356 354 353 353 353 353 353 353 355 354 348 349 354 354 358 356 353 353 353
354 357 361 364 364 364 364 364 365 364 364 363 363 363 362 362 361 361 361 361 360 358 357 356 354 352 350 350 351 352 353 354 354 344 344 348 350 356 359 358 356 356 355
356 357 356 363 363 363 363 363 364 364 364 364 364 363 362 361 361 361 360 360 359 358 356 356 355 354 351 350 351 353 353 352 347 339 340 350 353 355 359 359 358 357 355
360 354 355 362 363 362 362 363 363 363 364 364 364 363 362 361 360 360 360 360 360 359 358 357 356 354 355 354 353 354 355 352 345 339 339 341 353 357 360 360 359 358 356
357 354 353 354 359 362 362 362 362 362 362 362 362 361 361 360 359 359 359 359 360 359 358 359 358 358 357 355 354 354 355 353 347 339 338 341 356 360 362 361 360 359 357
355 355 353 355 353 354 355 360 361 361 361 361 360 360 360 359 358 359 359 358 359 359 358 358 358 358 357 356 355 354 354 352 345 339 337 338 359 363 363 361 360 359 358
349 356 355 355 355 353 351 356 359 359 359 359 358 359 357 351 353 353 353 355 359 359 359 359 359 358 358 357 356 355 354 345 338 335 336 346 358 362 362 361 360 359 358
344 349 356 360 357 357 355 355 354 352 353 353 352 355 352 349 352 349 354 358 358 359 360 359 359 359 358 351 348 355 349 344 341 335 333 351 359 362 362 361 360 360 359
345 349 354 365 369 363 359 356 355 354 353 353 355 355 351 353 357 352 353 351 357 357 351 354 354 353 352 352 349 349 348 347 346 341 339 357 358 362 363 361 361 360 359
336 346 356 360 364 370 363 363 359 355 354 354 354 359 357 359 360 357 354 355 355 356 355 353 354 356 354 353 351 349 347 346 343 341 344 357 357 359 361 360 360 360 360
333 339 342 357 367 371 372 367 368 357 360 360 359 360 361 358 356 353 353 357 350 350 351 350 348 351 349 348 347 348 350 350 349 348 344 357 356 356 358 359 358 358 358
332 340 344 346 364 366 371 372 369 370 364 366 358 358 358 359 361 361 354 357 358 356 356 352 350 351 349 346 343 344 346 345 347 350 348 349 354 352 354 356 357 356 356
331 339 344 349 364 367 372 372 371 366 359 352 357 358 353 357 357 359 355 354 348 348 344 347 349 342 339 337 336 336 336 338 342 347 348 350 350 352 351 351 353 354 354
342 340 343 335 362 365 370 368 367 365 360 363 363 363 355 357 357 357 350 344 346 342 340 340 339 337 335 332 331 332 333 336 337 339 341 346 349 349 351 351 350 351 353
338 340 348 351 360 364 366 366 367 366 363 359 356 353 351 357 349 346 344 343 342 341 340 338 337 335 332 334 333 331 334 336 334 333 335 337 340 350 347 349 350 350 350
338 342 347 348 362 364 363 366 363 360 362 352 352 349 352 348 344 343 344 343 341 339 337 339 337 337 336 334 331 329 332 334 335 335 336 339 337 337 343 346 345 346 349
337 341 345 348 361 363 360 356 354 348 356 344 343 348 346 343 342 344 341 340 339 337 340 338 336 332 330 334 328 327 327 331 333 335 335 334 338 340 340 341 345 348 348
342 347 350 354 360 362 359 358 357 346 347 342 344 345 343 341 340 340 340 339 340 336 336 337 338 330 327 329 323 323 318 320 327 333 334 333 332 335 335 343 343 341 346
338 344 347 351 356 356 351 351 350 345 343 338 339 340 341 337 337 338 337 337 338 336 330 331 329 329 326 328 332 324 314 314 321 326 330 331 333 334 334 335 342 340 341
334 338 342 344 345 346 347 355 353 345 340 342 339 340 337 336 334 334 334 334 335 333 331 330 327 326 325 320 324 327 327 324 318 317 323 328 333 332 334 334 334 339 342
332 333 336 338 338 339 339 338 334 337 340 339 337 336 335 337 334 330 331 332 332 331 329 328 328 328 326 323 321 322 323 323 323 318 314 320 326 328 330 330 331 335 341
328 330 333 336 337 337 336 336 336 335 333 331 332 331 331 335 332 333 330 331 331 330 328 326 326 326 324 325 324 323 322 320 320 320 316 318 318 325 329 330 331 336 335
Wind_Speed
14 13 14 14 14 13 14 15 13 12 12 11 11 11 10 10 10 12 13 12 12 11 10 8 7 7 7 8 9 9 9 9 8 8 8 9 9 8 6 5 2 7 7
18 14 13 14 14 14 14 13 13 13 12 11 11 11 10 10 10 11 11 11 10 10 9 8 8 7 7 6 6 6 6 6 3 3 5 5 5 9 8 6 9 9 7
17 13 13 14 14 13 14 15 14 13 12 11 11 11 10 10 10 10 10 9 9 10 9 8 7 6 6 6 4 4 3 2 3 3 3 6 8 9 12 8 7 7 6
16 11 12 13 14 14 13 13 13 13 12 12 12 11 10 9 9 10 9 8 8 8 8 7 6 5 5 4 3 2 1 2 7 7 5 9 6 10 9 11 7 6 5
14 13 13 13 14 14 13 13 13 12 12 11 11 11 10 10 9 9 9 7 6 6 6 5 5 4 3 3 1 1 2 4 8 10 9 9 9 12 11 10 9 7 5
15 16 14 14 13 13 13 12 12 12 12 12 11 11 10 9 8 8 8 6 5 4 4 4 4 3 2 2 2 2 3 5 8 9 10 9 8 14 12 11 6 5 8
18 15 14 13 14 14 14 13 11 11 10 10 11 10 10 9 8 8 8 7 6 5 4 3 2 1 1 2 3 4 5 6 7 9 9 6 3 18 16 12 10 9 8
18 15 13 12 12 12 12 12 12 12 11 10 10 9 9 8 8 7 6 6 5 3 2 1 1 1 2 3 4 5 6 8 8 9 11 10 11 15 17 14 12 10 9
20 16 11 11 10 10 10 11 11 11 11 11 10 10 9 9 8 7 6 5 4 2 2 3 3 4 5 6 6 7 8 10 7 8 12 8 16 16 15 15 14 12 11
19 19 16 12 10 9 9 10 10 10 10 9 9 9 9 9 9 9 8 8 7 6 5 5 6 6 7 8 8 10 11 12 9 9 9 6 14 15 15 16 16 14 13
14 18 18 18 15 12 14 11 10 10 9 9 8 8 8 6 8 10 10 9 11 9 7 7 8 9 10 11 13 16 15 7 9 8 8 13 18 18 17 17 16 16 14
11 14 18 16 16 13 12 13 10 9 7 7 8 9 7 8 9 8 9 13 14 11 10 10 13 11 9 7 8 18 6 9 9 9 7 12 19 18 17 17 17 17 17
10 8 14 8 6 6 14 10 7 7 6 6 8 8 8 5 5 4 5 5 4 9 6 9 8 7 9 8 8 3 8 10 8 7 11 15 18 18 17 17 17 18 18
13 9 13 10 6 3 6 7 8 6 7 7 8 10 6 2 1 5 4 3 3 2 3 3 1 4 7 8 7 8 8 8 7 6 7 14 18 19 19 18 18 18 20
10 9 7 8 7 4 2 6 3 7 4 6 5 7 4 3 4 4 3 0 2 3 1 2 3 4 5 7 8 8 6 7 9 7 5 9 15 16 18 19 20 21 22
8 8 7 5 8 3 2 4 3 3 3 2 6 10 10 3 4 5 2 4 4 4 4 2 4 4 5 6 6 7 7 7 9 8 8 9 12 16 19 21 22 23 23
5 9 7 5 9 6 2 1 3 3 3 3 6 10 9 11 6 6 6 2 4 4 6 4 3 4 5 6 7 9 9 9 7 7 9 8 8 12 18 20 22 24 26
2 8 6 8 13 9 4 3 4 4 3 2 4 2 6 4 7 2 1 6 5 5 4 3 3 5 5 6 6 7 8 8 9 10 9 8 8 8 8 18 23 26 26
5 3 2 3 14 11 8 4 5 6 5 7 5 3 9 5 8 6 5 5 6 3 3 4 4 4 5 5 7 7 5 5 9 11 13 13 12 9 7 14 17 23 26
7 4 5 6 13 9 7 5 3 4 4 5 9 6 8 5 8 6 3 5 0 3 4 4 4 4 5 6 8 10 9 9 8 8 10 11 12 14 10 12 11 10 18
7 6 5 6 9 6 5 5 4 6 3 8 7 7 6 6 6 3 5 5 5 4 5 5 4 6 6 4 6 8 9 8 11 7 8 10 11 12 12 13 11 8 7
6 4 2 5 5 1 4 3 4 1 6 8 6 5 6 5 4 4 4 3 5 4 5 5 5 6 6 6 8 10 10 11 9 8 8 9 12 11 11 7 9 8 7
7 6 6 8 5 5 4 3 4 5 5 7 6 4 4 3 4 3 3 2 2 3 4 5 6 7 7 7 8 6 10 11 12 9 9 9 9 10 12 11 8 8 8
8 8 8 8 7 4 9 2 1 1 2 2 4 4 5 4 2 1 2 3 3 3 4 4 6 7 7 9 8 8 8 12 12 15 8 8 9 9 11 9 12 6 5
9 8 7 8 8 9 9 11 8 7 3 2 5 5 4 2 5 0 1 4 4 3 5 6 7 6 7 9 9 10 10 10 10 11 15 10 8 6 8 12 14 11 10
8 9 7 6 5 6 6 7 7 8 8 7 6 5 3 2 3 4 6 5 4 4 5 6 7 8 8 9 10 10 10 10 10 9 13 12 13 8 9 10 12 5 8
Wind_Direction
110 117 109 107 109 112 120 121 120 120 117 117 118 112 118 113 110 106 102 103 107 107 107 105 101 81 59 58 58 64 65 66 74 75 89 105 113 112 101 83 355 116 104
121 121 112 109 110 116 120 119 121 123 126 129 130 124 129 124 117 113 105 105 104 106 105 102 108 86 70 71 70 72 76 77 85 139 131 137 153 148 125 93 48 106 112
121 127 120 115 117 119 124 126 127 128 132 131 126 132 134 129 126 119 111 108 108 107 106 106 108 95 83 79 86 83 86 104 251 245 232 226 170 190 143 127 111 116 119
123 137 131 123 121 122 124 128 129 131 136 136 136 139 139 134 134 131 124 119 111 109 110 106 103 95 87 80 85 106 154 252 274 274 250 239 259 182 162 140 146 144 146
131 123 123 126 123 124 126 126 130 135 138 139 139 143 146 143 140 141 138 132 124 113 108 105 100 94 91 90 86 212 253 270 282 288 269 258 188 185 163 158 163 170 173
142 126 134 128 123 124 128 129 133 137 141 141 142 145 144 143 142 146 150 150 139 123 119 118 119 120 133 142 164 232 259 269 284 278 265 278 160 163 166 173 156 140 157
122 128 136 131 132 135 136 138 137 137 140 144 147 149 149 148 153 158 161 165 161 155 149 144 148 152 210 220 213 226 242 259 271 276 281 287 80 166 171 174 164 162 175
125 134 138 133 134 137 140 142 144 146 148 150 150 152 155 156 161 166 170 173 177 179 182 192 230 261 269 273 267 254 253 256 271 265 265 264 174 183 169 172 171 170 184
123 123 142 148 136 133 137 143 147 150 152 153 152 155 156 160 167 170 177 183 194 205 235 262 263 264 269 259 254 253 251 254 261 274 282 294 160 189 171 175 172 178 190
142 145 149 146 158 161 153 151 151 154 153 154 156 159 164 167 172 178 177 193 199 209 222 233 244 249 256 263 258 249 245 251 249 258 268 274 173 185 183 180 171 181 196
158 151 154 155 163 187 158 158 153 158 160 158 164 169 163 193 180 181 202 197 196 206 219 233 243 243 244 249 249 241 232 234 241 234 232 242 180 187 186 182 176 182 200
163 164 152 151 162 188 157 149 163 162 177 189 183 172 210 220 180 195 194 177 192 199 215 228 235 240 252 261 253 235 219 232 241 242 248 238 178 184 186 182 183 187 198
157 104 124 124 134 172 136 165 167 161 176 190 196 168 213 229 169 185 154 176 181 208 230 222 229 226 244 248 261 127 208 229 241 242 241 173 182 189 190 187 190 196 202
82 84 117 126 104 8 114 178 159 151 176 177 196 188 196 208 99 56 67 69 82 101 311 16 236 254 235 247 313 306 297 301 300 301 295 180 191 194 196 195 197 202 208
98 87 66 103 114 117 1 27 77 115 218 169 178 176 124 142 121 85 63 111 178 177 144 278 288 302 306 295 284 270 271 288 301 300 294 205 201 209 205 203 204 208 212
90 103 118 114 106 129 201 112 80 95 109 242 191 175 191 137 124 127 151 232 219 183 175 202 241 240 253 261 278 279 261 256 258 260 271 283 224 221 218 216 214 214 217
93 113 109 107 106 87 287 183 123 153 139 167 276 43 320 133 180 177 186 209 47 37 0 314 307 340 335 325 326 328 321 310 301 269 247 249 264 234 230 236 229 225 224
352 117 167 204 129 139 174 182 193 176 169 179 66 154 194 128 155 118 135 63 36 16 326 328 348 360 350 338 314 306 298 292 294 293 279 261 250 250 245 233 250 241 233
343 47 180 237 141 153 140 217 201 175 173 165 134 71 346 340 69 30 53 72 34 317 343 18 11 2 320 310 301 289 293 305 306 297 297 295 281 244 246 261 252 246 250
2 15 333 309 128 149 149 229 217 132 250 162 124 161 171 77 64 30 35 89 38 343 357 13 341 310 285 293 308 306 287 276 271 273 279 270 274 279 260 250 260 255 231
20 5 303 277 125 128 142 231 172 182 189 86 81 81 86 79 84 74 31 34 19 7 4 343 320 312 294 308 299 304 297 292 290 274 284 283 285 271 286 275 253 252 248
40 11 286 288 76 178 205 223 305 86 129 112 103 87 88 106 96 87 51 8 37 357 330 309 336 328 318 313 303 296 308 302 281 288 317 310 308 300 296 323 302 283 260
64 47 33 15 61 24 55 28 37 68 62 101 110 132 135 114 97 94 62 53 12 338 328 338 314 300 308 316 305 303 308 290 310 305 290 297 301 310 297 293 284 258 245
73 66 53 42 24 38 3 71 22 360 143 81 135 98 137 150 84 133 96 62 44 6 311 314 334 317 305 297 295 282 277 286 293 308 296 292 273 282 299 309 301 281 253
89 76 58 43 31 24 16 23 3 16 90 144 83 106 66 259 219 170 46 53 28 349 322 296 293 316 312 302 298 299 299 295 291 298 294 307 301 306 320 307 311 309 338
151 128 113 89 45 26 19 21 12 16 8 16 24 8 327 350 30 27 43 38 355 300 306 315 294 293 293 294 291 285 281 281 282 296 294 300 305 297 298 302 302 19 33